Time,TemperatureF,DewpointF,PressureIn,WindDirection,WindDirectionDegrees,WindSpeedMPH,WindSpeedGustMPH,Humidity,HourlyPrecipIn,Conditions,Clouds,dailyrainin,SoftwareType,DateUTC
2013-04-17 00:07:00,42.9,33.4,30.22,North,9,1.0,1.0,69,0.00,,,0.00,Wunderground v.1.15,2013-04-17 04:07:00,
2013-04-17 00:17:00,42.5,33.0,30.22,NNE,13,1.0,1.0,69,0.00,,,0.00,Wunderground v.1.15,2013-04-17 04:17:00,
2013-04-17 00:27:00,42.3,33.2,30.23,NNE,13,1.0,1.0,70,0.00,,,0.00,Wunderground v.1.15,2013-04-17 04:27:00,
2013-04-17 00:37:00,42.3,33.2,30.23,NNE,13,1.0,1.0,70,0.00,,,0.00,Wunderground v.1.15,2013-04-17 04:37:00,
2013-04-17 00:47:00,42.3,32.8,30.23,NNE,23,3.0,3.0,69,0.00,,,0.00,Wunderground v.1.15,2013-04-17 04:47:00,
2013-04-17 00:57:00,42.6,32.4,30.23,NNE,26,3.0,4.0,67,0.00,,,0.00,Wunderground v.1.15,2013-04-17 04:57:00,
2013-04-17 01:07:00,42.6,32.4,30.23,NNE,26,3.0,4.0,67,0.00,,,0.00,Wunderground v.1.15,2013-04-17 05:07:00,
2013-04-17 01:17:00,42.8,32.2,30.23,NNE,23,5.0,5.0,66,0.00,,,0.00,Wunderground v.1.15,2013-04-17 05:17:00,
2013-04-17 01:27:00,42.8,32.2,30.24,NNE,12,4.0,4.0,66,0.00,,,0.00,Wunderground v.1.15,2013-04-17 05:27:00,
2013-04-17 01:37:00,42.6,32.0,30.24,NNE,19,3.0,3.0,66,0.00,,,0.00,Wunderground v.1.15,2013-04-17 05:37:00,
2013-04-17 01:47:00,42.8,31.8,30.25,NNE,23,4.0,4.0,65,0.00,,,0.00,Wunderground v.1.15,2013-04-17 05:47:00,
2013-04-17 01:57:00,42.9,31.9,30.26,NNE,33,2.0,3.0,65,0.00,,,0.00,Wunderground v.1.15,2013-04-17 05:57:00,
2013-04-17 02:06:00,42.9,31.6,30.26,NE,49,3.0,7.0,64,0.00,,,0.00,Wunderground v.1.15,2013-04-17 06:06:00,
2013-04-17 02:17:00,43.2,31.4,30.26,NE,42,5.0,5.0,63,0.00,,,0.00,Wunderground v.1.15,2013-04-17 06:17:00,
2013-04-17 02:27:00,43.2,31.8,30.26,NE,55,4.0,4.0,64,0.00,,,0.00,Wunderground v.1.15,2013-04-17 06:27:00,
2013-04-17 02:37:00,43.2,31.1,30.26,NE,52,4.0,4.0,62,0.00,,,0.00,Wunderground v.1.15,2013-04-17 06:37:00,
2013-04-17 02:47:00,43.3,30.7,30.26,NE,54,5.0,6.0,61,0.00,,,0.00,Wunderground v.1.15,2013-04-17 06:47:00,
2013-04-17 02:56:00,43.5,30.5,30.26,NE,51,6.0,6.0,60,0.00,,,0.00,Wunderground v.1.15,2013-04-17 06:56:00,
2013-04-17 03:07:00,43.5,30.5,30.26,NE,45,5.0,5.0,60,0.00,,,0.00,Wunderground v.1.15,2013-04-17 07:07:00,
2013-04-17 03:17:00,43.5,30.5,30.27,ENE,59,5.0,5.0,60,0.00,,,0.00,Wunderground v.1.15,2013-04-17 07:17:00,
2013-04-17 03:27:00,43.5,30.5,30.27,NE,49,5.0,6.0,60,0.00,,,0.00,Wunderground v.1.15,2013-04-17 07:27:00,
2013-04-17 03:37:00,43.3,30.3,30.27,ENE,58,5.0,5.0,60,0.00,,,0.00,Wunderground v.1.15,2013-04-17 07:37:00,
2013-04-17 03:47:00,43.3,30.3,30.27,ENE,68,7.0,7.0,60,0.00,,,0.00,Wunderground v.1.15,2013-04-17 07:47:00,
2013-04-17 03:56:00,43.3,30.7,30.28,NE,47,5.0,7.0,61,0.00,,,0.00,Wunderground v.1.15,2013-04-17 07:56:00,
2013-04-17 04:07:00,43.3,30.7,30.28,NE,35,6.0,7.0,61,0.00,,,0.00,Wunderground v.1.15,2013-04-17 08:07:00,
2013-04-17 04:17:00,43.3,30.7,30.28,ENE,57,5.0,7.0,61,0.00,,,0.00,Wunderground v.1.15,2013-04-17 08:17:00,
2013-04-17 04:27:00,43.2,31.1,30.27,NE,55,6.0,7.0,62,0.00,,,0.00,Wunderground v.1.15,2013-04-17 08:27:00,
2013-04-17 04:37:00,43.2,30.6,30.27,ENE,58,7.0,7.0,61,0.00,,,0.00,Wunderground v.1.15,2013-04-17 08:37:00,
2013-04-17 04:47:00,43.2,30.6,30.28,NE,47,6.0,6.0,61,0.00,,,0.00,Wunderground v.1.15,2013-04-17 08:47:00,
2013-04-17 04:56:00,43.2,31.1,30.27,ENE,59,8.0,8.0,62,0.00,,,0.00,Wunderground v.1.15,2013-04-17 08:56:00,
2013-04-17 05:07:00,43.2,31.4,30.27,ENE,63,8.0,8.0,63,0.00,,,0.00,Wunderground v.1.15,2013-04-17 09:07:00,
2013-04-17 05:17:00,43.1,31.7,30.27,NE,49,7.0,8.0,64,0.00,,,0.00,Wunderground v.1.15,2013-04-17 09:17:00,
2013-04-17 05:27:00,43.1,32.1,30.27,ENE,73,8.0,11.0,65,0.00,,,0.00,Wunderground v.1.15,2013-04-17 09:27:00,
2013-04-17 05:37:00,42.9,32.3,30.27,NE,52,7.0,7.0,66,0.00,,,0.00,Wunderground v.1.15,2013-04-17 09:37:00,
2013-04-17 05:46:00,42.9,32.3,30.27,ENE,71,7.0,7.0,66,0.00,,,0.00,Wunderground v.1.15,2013-04-17 09:46:00,
2013-04-17 05:57:00,42.8,32.6,30.27,ENE,74,6.0,7.0,67,0.00,,,0.00,Wunderground v.1.15,2013-04-17 09:57:00,
2013-04-17 06:07:00,42.3,32.1,30.27,East,84,6.0,7.0,67,0.00,,,0.00,Wunderground v.1.15,2013-04-17 10:07:00,
2013-04-17 06:17:00,42.1,32.7,30.26,ENE,70,7.0,10.0,69,0.00,,,0.00,Wunderground v.1.15,2013-04-17 10:17:00,
2013-04-17 06:27:00,41.9,32.5,30.26,ENE,78,8.0,8.0,69,0.00,,,0.00,Wunderground v.1.15,2013-04-17 10:27:00,
2013-04-17 06:37:00,41.5,32.8,30.26,ENE,67,6.0,8.0,71,0.00,,,0.00,Wunderground v.1.15,2013-04-17 10:37:00,
2013-04-17 06:47:00,41.3,32.6,30.26,East,84,7.0,7.0,71,0.00,,,0.00,Wunderground v.1.15,2013-04-17 10:47:00,
2013-04-17 06:57:00,41.2,32.5,30.26,East,101,8.0,9.0,71,0.00,,,0.00,Wunderground v.1.15,2013-04-17 10:57:00,
2013-04-17 07:07:00,41.2,32.2,30.26,East,83,8.0,8.0,70,0.00,,,0.00,Wunderground v.1.15,2013-04-17 11:07:00,
2013-04-17 07:17:00,40.9,31.9,30.27,ENE,78,7.0,7.0,70,0.00,,,0.00,Wunderground v.1.15,2013-04-17 11:17:00,
2013-04-17 07:27:00,41.2,32.2,30.27,ESE,104,10.0,10.0,70,0.00,,,0.00,Wunderground v.1.15,2013-04-17 11:27:00,
2013-04-17 07:37:00,41.3,31.9,30.27,East,88,10.0,10.0,69,0.00,,,0.00,Wunderground v.1.15,2013-04-17 11:37:00,
2013-04-17 07:47:00,41.6,32.2,30.27,ENE,69,8.0,8.0,69,0.00,,,0.00,Wunderground v.1.15,2013-04-17 11:47:00,
2013-04-17 07:57:00,41.6,32.2,30.27,East,81,10.0,13.0,69,0.00,,,0.00,Wunderground v.1.15,2013-04-17 11:57:00,
2013-04-17 08:07:00,41.6,32.2,30.27,East,88,9.0,13.0,69,0.00,,,0.00,Wunderground v.1.15,2013-04-17 12:07:00,
2013-04-17 08:17:00,41.8,32.0,30.27,East,96,11.0,12.0,68,0.00,,,0.00,Wunderground v.1.15,2013-04-17 12:17:00,
2013-04-17 08:26:00,42.5,32.3,30.26,East,84,11.0,14.0,67,0.00,,,0.00,Wunderground v.1.15,2013-04-17 12:26:00,
2013-04-17 08:37:00,42.8,32.2,30.26,East,87,11.0,11.0,66,0.00,,,0.00,Wunderground v.1.15,2013-04-17 12:37:00,
2013-04-17 08:47:00,43.3,32.3,30.27,ENE,64,9.0,9.0,65,0.00,,,0.00,Wunderground v.1.15,2013-04-17 12:47:00,
2013-04-17 08:57:00,43.3,31.9,30.27,East,92,11.0,16.0,64,0.00,,,0.00,Wunderground v.1.15,2013-04-17 12:57:00,
2013-04-17 09:07:00,43.8,32.4,30.27,East,83,9.0,10.0,64,0.00,,,0.00,Wunderground v.1.15,2013-04-17 13:07:00,
2013-04-17 09:17:00,44.3,32.9,30.27,ENE,61,9.0,11.0,64,0.00,,,0.00,Wunderground v.1.15,2013-04-17 13:17:00,
2013-04-17 09:27:00,44.5,32.3,30.26,East,81,13.0,15.0,62,0.00,,,0.00,Wunderground v.1.15,2013-04-17 13:27:00,
2013-04-17 09:37:00,44.6,32.4,30.26,East,84,12.0,13.0,62,0.00,,,0.00,Wunderground v.1.15,2013-04-17 13:37:00,
2013-04-17 09:47:00,44.8,32.6,30.26,East,90,11.0,11.0,62,0.00,,,0.00,Wunderground v.1.15,2013-04-17 13:47:00,
2013-04-17 09:57:00,45.2,32.5,30.26,ENE,72,11.0,17.0,61,0.00,,,0.00,Wunderground v.1.15,2013-04-17 13:57:00,
2013-04-17 10:06:00,45.8,33.1,30.26,ENE,57,10.0,12.0,61,0.00,,,0.00,Wunderground v.1.15,2013-04-17 14:06:00,
2013-04-17 10:17:00,46.7,33.1,30.26,ENE,78,9.0,9.0,59,0.00,,,0.00,Wunderground v.1.15,2013-04-17 14:17:00,
2013-04-17 10:27:00,46.7,32.7,30.26,ENE,75,9.0,9.0,58,0.00,,,0.00,Wunderground v.1.15,2013-04-17 14:27:00,
2013-04-17 10:37:00,47.1,33.1,30.26,NE,53,10.0,11.0,58,0.00,,,0.00,Wunderground v.1.15,2013-04-17 14:37:00,
2013-04-17 10:47:00,47.4,33.4,30.24,East,91,10.0,11.0,58,0.00,,,0.00,Wunderground v.1.15,2013-04-17 14:47:00,
2013-04-17 10:56:00,48.6,34.0,30.25,East,100,10.0,13.0,57,0.00,,,0.00,Wunderground v.1.15,2013-04-17 14:56:00,
2013-04-17 11:07:00,48.6,33.1,30.25,East,98,11.0,15.0,55,0.00,,,0.00,Wunderground v.1.15,2013-04-17 15:07:00,
2013-04-17 11:17:00,48.8,33.3,30.24,East,88,11.0,11.0,55,0.00,,,0.00,Wunderground v.1.15,2013-04-17 15:17:00,
2013-04-17 11:27:00,49.4,34.3,30.25,East,80,9.0,12.0,56,0.00,,,0.00,Wunderground v.1.15,2013-04-17 15:27:00,
2013-04-17 11:37:00,49.9,34.8,30.25,ENE,67,10.0,11.0,56,0.00,,,0.00,Wunderground v.1.15,2013-04-17 15:37:00,
2013-04-17 11:47:00,48.9,33.4,30.26,East,79,10.0,11.0,55,0.00,,,0.00,Wunderground v.1.15,2013-04-17 15:47:00,
2013-04-17 11:57:00,49.8,35.2,30.26,East,85,8.0,13.0,57,0.00,,,0.00,Wunderground v.1.15,2013-04-17 15:57:00,
2013-04-17 12:07:00,49.1,34.1,30.26,ENE,77,10.0,10.0,56,0.00,,,0.00,Wunderground v.1.15,2013-04-17 16:07:00,
2013-04-17 12:17:00,49.1,34.5,30.24,ENE,63,9.0,13.0,57,0.00,,,0.00,Wunderground v.1.15,2013-04-17 16:17:00,
2013-04-17 12:27:00,48.6,34.5,30.26,ENE,66,9.0,12.0,58,0.00,,,0.00,Wunderground v.1.15,2013-04-17 16:27:00,
2013-04-17 12:37:00,48.3,34.2,30.26,ENE,78,7.0,10.0,58,0.00,,,0.00,Wunderground v.1.15,2013-04-17 16:37:00,
2013-04-17 12:47:00,48.3,34.6,30.24,East,101,9.0,9.0,59,0.00,,,0.00,Wunderground v.1.15,2013-04-17 16:47:00,
2013-04-17 12:57:00,48.2,35.0,30.18,East,86,12.0,14.0,60,0.00,,,0.00,Wunderground v.1.15,2013-04-17 16:57:00,
2013-04-17 13:06:00,48.2,35.8,30.18,ENE,78,13.0,13.0,62,0.00,,,0.00,Wunderground v.1.15,2013-04-17 17:06:00,
2013-04-17 13:17:00,48.8,35.5,30.11,East,94,15.0,21.0,60,0.00,,,0.00,Wunderground v.1.15,2013-04-17 17:17:00,
2013-04-17 13:27:00,48.9,36.4,30.12,East,96,18.0,18.0,62,0.00,,,0.00,Wunderground v.1.15,2013-04-17 17:27:00,
2013-04-17 13:37:00,49.1,36.2,30.12,East,100,14.0,14.0,61,0.00,,,0.00,Wunderground v.1.15,2013-04-17 17:37:00,
2013-04-17 13:47:00,48.9,36.0,30.16,East,85,14.0,17.0,61,0.00,,,0.00,Wunderground v.1.15,2013-04-17 17:47:00,
2013-04-17 13:57:00,49.2,36.3,30.14,SE,134,13.0,13.0,61,0.00,,,0.00,Wunderground v.1.15,2013-04-17 17:57:00,
2013-04-17 14:06:00,49.1,37.0,30.14,East,101,11.0,13.0,63,0.00,,,0.00,Wunderground v.1.15,2013-04-17 18:06:00,
2013-04-17 14:17:00,49.1,37.4,30.16,ENE,76,10.0,10.0,64,0.00,,,0.00,Wunderground v.1.15,2013-04-17 18:17:00,
2013-04-17 14:27:00,49.1,38.2,30.15,ENE,74,11.0,11.0,66,0.00,,,0.00,Wunderground v.1.15,2013-04-17 18:27:00,
2013-04-17 14:37:00,49.5,38.2,30.15,ENE,67,8.0,10.0,65,0.00,,,0.00,Wunderground v.1.15,2013-04-17 18:37:00,
2013-04-17 14:47:00,49.5,38.2,30.16,ENE,78,7.0,8.0,65,0.00,,,0.00,Wunderground v.1.15,2013-04-17 18:47:00,
2013-04-17 14:56:00,49.2,38.7,30.15,NE,50,6.0,8.0,67,0.00,,,0.00,Wunderground v.1.15,2013-04-17 18:56:00,
2013-04-17 15:07:00,48.9,38.8,30.15,ENE,65,7.0,8.0,68,0.00,,,0.00,Wunderground v.1.15,2013-04-17 19:07:00,
2013-04-17 15:17:00,48.6,38.5,30.15,NE,48,5.0,5.0,68,0.00,,,0.00,Wunderground v.1.15,2013-04-17 19:17:00,
2013-04-17 15:26:00,48.8,39.4,30.19,NNE,21,2.0,7.0,70,0.00,,,0.00,Wunderground v.1.15,2013-04-17 19:26:00,
2013-04-17 15:37:00,47.9,40.0,30.19,ENE,74,9.0,9.0,74,0.13,,,0.02,Wunderground v.1.15,2013-04-17 19:37:00,
2013-04-17 15:47:00,47.1,40.9,30.10,East,95,8.0,11.0,79,0.08,,,0.03,Wunderground v.1.15,2013-04-17 19:47:00,
2013-04-17 15:57:00,46.5,41.6,30.07,East,84,10.0,12.0,83,0.04,,,0.04,Wunderground v.1.15,2013-04-17 19:57:00,
2013-04-17 16:07:00,46.0,42.0,30.07,ENE,74,12.0,12.0,86,0.07,,,0.05,Wunderground v.1.15,2013-04-17 20:07:00,
2013-04-17 16:17:00,45.7,42.1,30.09,East,92,7.0,9.0,87,0.17,,,0.11,Wunderground v.1.15,2013-04-17 20:17:00,
2013-04-17 16:27:00,45.4,42.1,30.04,ENE,77,11.0,11.0,88,0.12,,,0.14,Wunderground v.1.15,2013-04-17 20:27:00,
2013-04-17 16:37:00,45.5,42.4,30.04,NW,321,8.0,8.0,89,0.07,,,0.15,Wunderground v.1.15,2013-04-17 20:37:00,
2013-04-17 16:47:00,45.4,42.6,30.11,ENE,65,8.0,17.0,90,0.16,,,0.17,Wunderground v.1.15,2013-04-17 20:47:00,
2013-04-17 16:57:00,44.5,42.3,30.02,East,84,13.0,13.0,92,0.25,,,0.27,Wunderground v.1.15,2013-04-17 20:57:00,
2013-04-17 17:07:00,44.3,42.4,30.02,ENE,74,13.0,13.0,93,0.05,,,0.27,Wunderground v.1.15,2013-04-17 21:07:00,
2013-04-17 17:16:00,44.6,42.7,30.00,WNW,296,11.0,11.0,93,0.00,,,0.28,Wunderground v.1.15,2013-04-17 21:16:00,
2013-04-17 17:27:00,44.5,42.6,30.10,ENE,63,11.0,12.0,93,3.45,,,0.39,Wunderground v.1.15,2013-04-17 21:27:00,
2013-04-17 17:37:00,44.2,42.6,30.10,North,5,7.0,7.0,94,0.18,,,0.51,Wunderground v.1.15,2013-04-17 21:37:00,
2013-04-17 17:47:00,44.1,42.8,30.10,NE,46,6.0,6.0,95,0.09,,,0.53,Wunderground v.1.15,2013-04-17 21:47:00,
2013-04-17 17:57:00,44.1,42.8,30.07,ENE,74,7.0,13.0,95,0.06,,,0.54,Wunderground v.1.15,2013-04-17 21:57:00,
2013-04-17 18:07:00,43.9,42.6,30.07,NE,54,8.0,8.0,95,0.00,,,0.54,Wunderground v.1.15,2013-04-17 22:07:00,
2013-04-17 18:17:00,43.9,42.8,30.09,ENE,57,5.0,5.0,96,0.50,,,0.59,Wunderground v.1.15,2013-04-17 22:17:00,
2013-04-17 18:26:00,43.9,42.8,30.13,NE,54,4.0,7.0,96,0.24,,,0.63,Wunderground v.1.15,2013-04-17 22:26:00,
2013-04-17 18:37:00,43.8,42.7,30.13,ENE,69,8.0,8.0,96,0.57,,,0.69,Wunderground v.1.15,2013-04-17 22:37:00,
2013-04-17 18:47:00,43.6,42.8,30.08,East,93,9.0,9.0,97,0.23,,,0.73,Wunderground v.1.15,2013-04-17 22:47:00,
2013-04-17 18:57:00,43.5,42.7,30.03,ESE,115,15.0,15.0,97,0.25,,,0.78,Wunderground v.1.15,2013-04-17 22:57:00,
2013-04-17 19:07:00,43.5,43.0,30.03,East,94,16.0,16.0,98,0.33,,,0.83,Wunderground v.1.15,2013-04-17 23:07:00,
2013-04-17 19:17:00,43.6,43.1,30.00,East,92,16.0,16.0,98,0.30,,,0.87,Wunderground v.1.15,2013-04-17 23:17:00,
2013-04-17 19:27:00,43.8,43.3,29.94,ESE,120,22.0,31.0,98,0.25,,,0.91,Wunderground v.1.15,2013-04-17 23:27:00,
2013-04-17 19:37:00,44.3,43.8,29.94,ESE,111,26.0,26.0,98,0.20,,,0.94,Wunderground v.1.15,2013-04-17 23:37:00,
2013-04-17 19:47:00,44.5,43.7,29.92,ENE,69,22.0,22.0,97,0.27,,,0.98,Wunderground v.1.15,2013-04-17 23:47:00,
2013-04-17 19:56:00,44.5,43.7,29.98,North,10,9.0,9.0,97,0.07,,,0.99,Wunderground v.1.15,2013-04-17 23:56:00,
2013-04-17 20:06:00,44.5,43.7,29.98,ESE,102,13.0,13.0,97,0.20,,,1.01,Wunderground v.1.15,2013-04-18 00:06:00,
2013-04-17 20:17:00,44.6,43.8,30.02,NE,44,6.0,6.0,97,0.06,,,1.02,Wunderground v.1.15,2013-04-18 00:17:00,
2013-04-17 20:27:00,44.5,43.7,29.99,ENE,65,8.0,8.0,97,0.00,,,1.02,Wunderground v.1.15,2013-04-18 00:27:00,
2013-04-17 20:36:00,44.5,43.7,29.99,SE,124,7.0,12.0,97,0.00,,,1.02,Wunderground v.1.15,2013-04-18 00:36:00,
2013-04-17 20:47:00,44.6,44.1,29.99,ESE,109,9.0,11.0,98,0.00,,,1.02,Wunderground v.1.15,2013-04-18 00:47:00,
2013-04-17 20:57:00,44.8,44.3,30.00,East,90,7.0,7.0,98,0.00,,,1.02,Wunderground v.1.15,2013-04-18 00:57:00,
2013-04-17 21:07:00,44.8,44.3,30.00,East,84,8.0,8.0,98,0.00,,,1.02,Wunderground v.1.15,2013-04-18 01:07:00,
2013-04-17 21:17:00,44.9,44.1,29.99,ENE,73,6.0,6.0,97,0.00,,,1.03,Wunderground v.1.15,2013-04-18 01:17:00,
2013-04-17 21:27:00,44.9,44.1,29.99,ESE,113,7.0,7.0,97,0.00,,,1.03,Wunderground v.1.15,2013-04-18 01:27:00,
2013-04-17 21:36:00,44.9,44.4,29.99,ESE,109,8.0,12.0,98,0.00,,,1.03,Wunderground v.1.15,2013-04-18 01:36:00,
2013-04-17 21:46:00,44.9,44.4,29.92,East,101,12.0,15.0,98,0.00,,,1.04,Wunderground v.1.15,2013-04-18 01:46:00,
2013-04-17 21:57:00,45.1,44.3,29.90,East,98,13.0,15.0,97,0.00,,,1.04,Wunderground v.1.15,2013-04-18 01:57:00,
2013-04-17 22:07:00,45.4,44.6,29.90,East,96,16.0,16.0,97,0.00,,,1.04,Wunderground v.1.15,2013-04-18 02:07:00,
2013-04-17 22:17:00,45.7,44.6,29.89,ESE,121,16.0,16.0,96,0.00,,,1.04,Wunderground v.1.15,2013-04-18 02:17:00,
2013-04-17 22:27:00,46.0,44.9,29.91,ENE,70,9.0,9.0,96,0.00,,,1.04,Wunderground v.1.15,2013-04-18 02:27:00,
2013-04-17 22:37:00,46.1,44.7,29.91,ESE,111,9.0,11.0,95,0.00,,,1.04,Wunderground v.1.15,2013-04-18 02:37:00,
2013-04-17 22:47:00,46.2,44.8,29.92,ESE,105,10.0,11.0,95,0.00,,,1.04,Wunderground v.1.15,2013-04-18 02:47:00,
2013-04-17 22:56:00,46.4,44.8,29.92,East,101,11.0,11.0,94,0.00,,,1.04,Wunderground v.1.15,2013-04-18 02:56:00,
2013-04-17 23:07:00,46.4,44.8,29.92,East,85,9.0,9.0,94,0.00,,,1.04,Wunderground v.1.15,2013-04-18 03:07:00,
2013-04-17 23:17:00,46.4,44.8,29.91,ENE,70,6.0,6.0,94,0.00,,,1.04,Wunderground v.1.15,2013-04-18 03:17:00,
2013-04-17 23:27:00,46.4,44.8,29.92,ENE,76,5.0,6.0,94,0.00,,,1.04,Wunderground v.1.15,2013-04-18 03:27:00,
2013-04-17 23:37:00,46.2,44.6,29.92,ENE,58,5.0,5.0,94,0.00,,,1.04,Wunderground v.1.15,2013-04-18 03:37:00,
2013-04-17 23:47:00,46.2,44.6,29.92,ENE,77,4.0,6.0,94,0.00,,,1.04,Wunderground v.1.15,2013-04-18 03:47:00,
2013-04-17 23:56:00,46.2,44.8,29.94,ESE,112,5.0,6.0,95,0.00,,,0.00,Wunderground v.1.15,2013-04-18 03:56:00,